Torax TimeFrame

Torax TimeFrame ⇒ XML

NameTime LeftWindow Opens
Animated Captain13d 00:282019-01-09 11:30:00
Old World Drake13d 00:212019-01-09 11:37:00
Felroc, Overseer of Hellfire1d 17:492019-01-20 18:09:00
Nafir, God of Desolation1d 08:102019-01-21 03:48:00
Bolkor, the Holy Master0d 20:242019-01-21 15:34:00
Anguish0d 17:402019-01-21 18:18:00
Great Lord Ganeshan0d 16:412019-01-21 19:17:00
The Emerald Assassin0d 16:332019-01-21 19:25:00
Shadow0d 13:172019-01-21 22:41:00
Gnorb0d 13:142019-01-21 22:44:00
Nessam0d 13:122019-01-21 22:46:00
Pinosis0d 11:582019-01-22 00:00:00
Mistress of the Sword0d 10:542019-01-22 01:04:00
Varsanor, Master of Darkness0d 09:152019-01-22 02:43:00
Akkel the Enflamed Warrior0d 07:002019-01-22 04:58:00
Baron Mu, Dark Rider of the Undead0d 04:462019-01-22 07:12:00
Brutalitar, Lord of the Underworld0d 04:252019-01-22 07:33:00
Lord Sibannac0d 04:162019-01-22 07:42:00
King Ashnar, Lord of the Unliving0d 03:342019-01-22 08:24:00
Lady Chaos, Queen of the Abyss0d 03:182019-01-22 08:40:00
Slashbrood, Devourer of the Blackness0d 03:142019-01-22 08:44:00
Garland, The Lord Keeper0d 02:132019-01-22 09:45:00
Kro Shuk, Doomslayer0d 01:332019-01-22 10:25:00
Synge, The Red Dragon0d 01:222019-01-22 10:36:00
Lord Varan0d 01:192019-01-22 10:39:00
Bloodchill the Grizzly0d 00:492019-01-22 11:09:00
Detox0d 00:422019-01-22 11:16:00
Skarthul the Avenged0d 00:392019-01-22 11:19:00
Lady Ariella0d 00:072019-01-22 11:51:00
Quiver, The Renegade0d 00:042019-01-22 11:54:00
Freezebreed, The Frozen Manipulator0d 00:352019-01-22 12:34:00
Jorun the Blazing Swordsman0d 00:462019-01-22 12:45:00
Anvilfist0d 02:412019-01-22 14:40:00
Raiyar, the Shadow Master0d 03:082019-01-22 15:07:00
Dreg nor, Keeper of the Infernal Essence0d 03:252019-01-22 15:24:00
Murderface0d 04:082019-01-22 16:07:00
Karvaz, Lord of Alsayic0d 04:092019-01-22 16:08:00
Emperor Neudeus, Controller of the Universe0d 07:042019-01-22 19:03:00
Lord Suka0d 07:152019-01-22 19:14:00
Windstrike The Vile0d 07:252019-01-22 19:24:00
Threk, King of Lords0d 08:452019-01-22 20:44:00
Keeper of Nature0d 10:092019-01-22 22:08:00
Archdevil Yirkon0d 10:202019-01-22 22:19:00
Ag Nabak the Abomination0d 11:262019-01-22 23:25:00
Dlanod, the Crazed Chancellor0d 11:492019-01-22 23:48:00
Xynak, the Arcane Master0d 13:022019-01-23 01:01:00
Volgan the Living Ironbark0d 13:202019-01-23 01:19:00
Crane0d 13:562019-01-23 01:55:00
Tsort0d 13:582019-01-23 01:57:00
Hyrak, Bringer of Nightmares0d 15:142019-01-23 03:13:00
Tylos, The Lord Master0d 15:382019-01-23 03:37:00
Ebliss, Fallen Angel of Despair0d 15:392019-01-23 03:38:00
Skybrine The Inescapable0d 16:012019-01-23 04:00:00
Rancid, Lord of Thugs0d 16:302019-01-23 04:29:00
Ancient Magus Tarkin0d 18:422019-01-23 06:41:00
Smoot the Yeti0d 18:452019-01-23 06:44:00
Samatha Dark-Soul0d 18:522019-01-23 06:51:00
Jazzmin, Maiden of Vitality0d 19:162019-01-23 07:15:00
Amalgamated Apparition0d 21:432019-01-23 09:42:00
Ormsul the Putrid0d 21:472019-01-23 09:46:00
Zikkir the Dark Archer0d 23:232019-01-23 11:22:00
Straya, the Underworld Ruler1d 01:102019-01-23 13:09:00
Rotborn, Eater of the Dead1d 02:522019-01-23 14:51:00
Nar Zhul, Slayer of All1d 03:202019-01-23 15:19:00
Hackerphage, Protector of the Gateway1d 04:572019-01-23 16:56:00
Lord Narada1d 08:572019-01-23 20:56:00
Melt Bane, The Forbidden Demon Dragon1d 09:252019-01-23 21:24:00
Sarcrina the Astral Priestess1d 09:482019-01-23 21:47:00
Lord Xordam1d 13:212019-01-24 01:20:00
Crantos, Defender of Ultimation1d 15:212019-01-24 03:20:00
Sigil, Lich of Woe1d 16:302019-01-24 04:29:00
Terrance, Rebel of Rallis1d 21:112019-01-24 09:10:00
Ganja the Stone Golem1d 22:262019-01-24 10:25:00
Crolvak, the Fire Master2d 03:092019-01-24 15:08:00
Numerocure, The Black Messenger of Evil2d 04:152019-01-24 16:14:00
Kretok, Descendant of Nature2d 09:582019-01-24 21:57:00
Lacuste of the Swarm2d 12:082019-01-25 00:07:00
Zertan, The Collector2d 15:022019-01-25 03:01:00
Grivvek, Protector of the Brood2d 15:482019-01-25 03:47:00
Nayark the Mummified Sorcerer2d 18:472019-01-25 06:46:00
Howldroid, Tormentor of the Pit2d 19:292019-01-25 07:28:00
Sylvanna TorLai2d 23:202019-01-25 11:19:00
Gorganus of the Wood3d 02:342019-01-25 14:33:00
Q-SEC Commander3d 03:362019-01-25 15:35:00
Balerion, Dragon of Dread3d 14:222019-01-26 02:21:00
Esquin, the Kinetic Master3d 21:112019-01-26 09:10:00
Viserion, the Necrodragon4d 05:502019-01-26 17:49:00
Shaik, Servant of Arkron199d 06:152018-07-07 05:43:00
Rook, Hand of Arkron197d 08:502018-07-09 03:08:00
Beast of Cards24d 00:142018-12-29 11:44:00
Noxious Slug19d 10:022019-01-03 01:56:00
Jade Dragonite12d 23:162019-01-09 12:42:00
Traxodon the Plaguebringer2d 11:192019-01-20 00:39:00
Vitkros, Hydra of the Deep1d 13:472019-01-20 22:11:00
Wanhiroeaz the Devourer1d 12:442019-01-20 23:14:00
95 Gods, Last update: 2019-01-22 16:55:03